Content
SEND FEEDBACK

Daily
Averages
Monthly
Summary
United States of America

GORDONVILLE, MISSOURI


Home > North America > United States > Missouri
Elevation: 446 feet     Latitude: 37 22N     Longitude: 089 40W

WEATHER
 
SELECT A DAY
Number of Records: 208,128;   Date Range: 1/1/95 - 9/16/14
 
SHARE

PRINT THIS DATA

[ ← Previous Day ]
WEATHER ALMANAC - JANUARY 31, 2013
[ Next Day → ]
[ °C ]   °F
Weather ElementAverageHighLow
Temperature31.7 °F39.9 °F (2:53 pm)19 °F (11:53 pm)
Dewpoint22.7 °F32 °F (4:53 pm)6.1 °F (11:53 pm)
Humidity70.2 %93 % (5:08 pm)50 % (9:53 pm)
Barometer30.12 in30.39 in (11:53 pm)29.98 in (1:53 am)
Wind Speed14.7 mph27.6 mph (6:53 pm)
Wind Gust32.2 mph (6:53 pm)
Weather ElementAverage
Visibility8.6 mi
Wind DirectionWNW (282.4 °)

Weather ElementTotal
Precipitation---
Heating Degree Days35.6 (Base 65)
Averaged from 29 records on January 31, 2013
WEATHER CONDITIONS BREAKOUT
WIND DIRECTION BREAKOUT
WEATHER BY HOUR - JANUARY 31, 2013
[ °C ]   °F
Local TimeTemperatureDewpointHumidityBarometerVisibilityWind DirectionWind SpeedGust SpeedPrecipitationEventsConditions
1:53 AM30.9 °F19.9 °F64 %29.98 in10.0 miWNW (290°)10.4 mphOvercast
2:53 AM30.9 °F21.0 °F67 %29.99 in10.0 miWest (270°)15.0 mphOvercast
3:53 AM30.9 °F19.9 °F64 %30.00 in10.0 miWest (280°)13.8 mphOvercast
4:53 AM30.0 °F19.9 °F66 %30.02 in10.0 miWNW (290°)12.7 mphOvercast
5:53 AM28.9 °F21.0 °F72 %30.03 in10.0 miWest (270°)5.8 mphClear
6:53 AM30.0 °F21.9 °F72 %30.05 in10.0 miWSW (250°)8.1 mphOvercast
7:53 AM30.9 °F21.9 °F69 %30.07 in10.0 miWSW (240°)11.5 mphOvercast
8:53 AM30.9 °F21.9 °F69 %30.09 in10.0 miSW (230°)11.5 mphOvercast
9:53 AM32.0 °F21.9 °F66 %30.12 in10.0 miWSW (240°)12.7 mphOvercast
10:53 AM34.0 °F24.1 °F67 %30.12 in10.0 miWSW (250°)13.8 mphPartly Cloudy
11:53 AM37.0 °F25.0 °F62 %30.09 in10.0 miSW (230°)12.7 mphClear
12:53 PM39.0 °F26.1 °F60 %30.06 in10.0 miSW (230°)16.1 mph19.6 mphClear
2:53 PM39.9 °F27.0 °F60 %30.04 in10.0 miSW (230°)12.7 mphOvercast
3:53 PM39.9 °F28.0 °F63 %30.07 in10.0 miWNW (290°)15.0 mph21.9 mphOvercast
4:23 PM37.4 °F30.2 °F75 %30.08 in10.0 miWNW (290°)19.6 mph25.3 mph0.00 inOvercast
4:53 PM35.1 °F32.0 °F89 %30.10 in5.0 miWNW (300°)13.8 mph0.00 inSnowLight Snow
5:08 PM33.8 °F32.0 °F93 %30.09 in4.0 miWNW (290°)12.7 mph0.00 inSnowLight Snow
5:22 PM35.6 °F32.0 °F87 %30.10 in9.0 miWNW (290°)18.4 mph23.0 mph0.00 inOvercast
5:31 PM33.8 °F28.4 °F81 %30.11 in2.5 miNW (320°)19.6 mph0.00 inSnowLight Snow
5:36 PM32.0 °F28.4 °F87 %30.11 in3.0 miNW (320°)17.3 mph25.3 mph0.00 inSnowLight Snow
5:48 PM32.0 °F28.4 °F87 %30.12 in2.5 miNW (310°)15.0 mph0.00 inSnowLight Snow
5:53 PM32.0 °F28.9 °F88 %30.12 in4.0 miWNW (300°)11.5 mph0.00 inSnowLight Snow
6:05 PM32.0 °F28.4 °F87 %30.12 in10.0 miWNW (300°)11.5 mph0.00 inOvercast
6:53 PM32.0 °F21.9 °F66 %30.17 in10.0 miWNW (300°)27.6 mph32.2 mph0.00 inScattered Clouds
7:53 PM28.4 °F15.8 °F59 %30.21 in10.0 miNW (320°)17.3 mph29.9 mphPartly Cloudy
8:53 PM26.1 °F10.0 °F51 %30.27 in10.0 miNNW (330°)18.4 mph26.5 mphClear
9:53 PM23.0 °F7.0 °F50 %30.32 in10.0 miNW (310°)17.3 mph27.6 mphClear
10:53 PM21.0 °F8.1 °F57 %30.35 in10.0 miNW (310°)16.1 mphClear
11:53 PM19.0 °F6.1 °F57 %30.39 in10.0 miNW (310°)17.3 mph24.2 mphClear
Hourly data recorded from KCGI, located miles away from Gordonville, Missouri







STORIES FROM OUR PARTNERS